Regional Weather Roundup
Issued by NWS

Home | Current Version | Previous Version | Graphics & Text | Print | Product List | Glossary On
Versions: 1 2 3 4 5 6 7 8 9 10 11 12 13 14 15 16 17 18 19 20 21 22 23 24 25 26 27 28 29 30 31 32 33 34 35 36 37 38 39 40 41 42 43 44 45 46 47 48 49 50
000
ASUS43 KDMX 281307
RWRIA

WEATHER ROUNDUP FOR IOWA
NATIONAL WEATHER SERVICE DES MOINES IA
700 AM CST FRI NOV 28 2014

NOTE: "FAIR" INDICATES FEW OR NO CLOUDS BELOW 12,000 FEET WITH NO
SIGNIFICANT WEATHER AND/OR OBSTRUCTIONS TO VISIBILITY.

* - THESE STATIONS ARE NOT NWS STATIONS...THUS NOT UNDER NWS
QUALITY CONTROL.  THEY ALSO DO NOT REPORT WEATHER SUCH
AS PRECIPITATION OR FOG.

IAZ001>003-012>014-020>022-031>034-043>046-281400-
   NORTHWEST IOWA

CITY           SKY/WX    TMP DP  RH WIND       PRES   REMARKS
CARROLL *      CLEAR     18  16  93 SE9       29.90F WCI   6
CHEROKEE *     CLOUDY    19  18  93 CALM      29.88S
DENISON *      CLEAR     27  23  86 S13G20    29.87F WCI  16
LE MARS *      CLEAR     27  23  86 S7        29.88R WCI  19
ORANGE CITY *  CLEAR     27  21  80 S6        29.85F WCI  20
SHELDON *      CLEAR     19  16  86 SE7       29.85F WCI  10
SIOUX CITY     MOCLDY    25  21  85 SE9       29.86F WCI  15
SPENCER        MOCLDY    16  12  84 SE8       29.90F WCI   5
STORM LAKE *   CLEAR     18  14  86 SE9       29.88F WCI   6
$$

IAZ055>058-069>071-079>083-090>094-281400-
   SOUTHWEST IOWA

CITY           SKY/WX    TMP DP  RH WIND       PRES   REMARKS
ATLANTIC *     CLEAR     27  21  80 S8        29.93F WCI  18
AUDUBON *      CLEAR     27  19  74 S7        29.92F WCI  19
CLARINDA *     CLEAR     27  23  86 S6        29.98F WCI  20
COUNCIL BLFS * CLEAR     25  23  93 SE10      29.90F WCI  15
CRESTON *      CLEAR     27  23  86 S12       29.95F WCI  16
HARLAN  *      CLEAR     25  23  93 S5        29.96S WCI  19
LAMONI         CLEAR     25  22  88 S6        30.00S WCI  18
RED OAK *      CLEAR     28  23  80 S7        29.95F WCI  21
SHENANDOAH *   CLEAR     27  23  86 S5        29.95F WCI  21
$$

IAZ047>049-059>061-072>074-084-281400-
   CENTRAL IOWA

CITY           SKY/WX    TMP DP  RH WIND       PRES   REMARKS
AMES           MOCLDY    16  11  80 SE12      29.98F WCI   3
ANKENY *       CLEAR     19  16  86 S12G18    29.98F WCI   7
CHARITON *     PTCLDY    23  19  86 SE9       30.01F WCI  13
DES MOINES     PTCLDY    20  14  77 SE10      30.00F WCI   9
GRINNELL*      MOCLDY    16  12  86 SE15      30.03F WCI   1
KNOXVILLE *    CLEAR     18  14  86 SE9       30.02F WCI   6
MARSHALLTOWN   CLOUDY    16  10  77 S17       30.01F WCI   0
PELLA *        MOCLDY    19  16  86 SE10      30.05F WCI   8
PERRY *          N/A     19  18  93 SE10      29.95F WCI   8
$$

IAZ004>006-015-016-023>025-035-036-281400-
   NORTH CENTRAL IOWA

CITY           SKY/WX    TMP DP  RH WIND       PRES   REMARKS
ALGONA *       CLEAR     16  12  86 SE17      29.94F WCI   0
CLARION *      CLEAR     18  14  86 SE15      29.96S WCI   3
ESTHERVILLE    PTCLDY    13  10  88 SE13      29.90F WCI  -2
FORT DODGE *     N/A     18  12  79 S8        29.93F WCI   7
MASON CITY     PTCLDY    13   7  77 SE16      30.00F WCI  -3
FOREST CITY *  CLEAR     14  10  85 SE10      29.98S WCI   1
IOWA FALLS *     N/A     18  12  79 SE12      29.99F WCI   5
$$

IAZ007>011-017>019-026>030-037>042-050>054-066-281400-
   NORTHEAST IOWA

CITY           SKY/WX    TMP DP  RH WIND       PRES   REMARKS
CEDAR RAPIDS   PTCLDY    17  11  77 SE17G23   30.07F WCI   1
CHARLES CITY * CLEAR     16   7  67 SE15G22   30.03F WCI   1
CLINTON *      PTCLDY    18  10  73 SE15      30.21F WCI   3
DECORAH *      CLOUDY    16   9  73 SE14G23   30.04F WCI   1
DUBUQUE        PTCLDY    15   9  76 SE14      30.13F WCI   0
MONTICELLO *   PTCLDY    18  10  73 SE16      30.11F WCI   3
OELWEIN *      CLOUDY    16   9  73 SE20      30.05F WCI  -1
WATERLOO       MOCLDY    18  10  71 S16       30.05F WCI   3
$$

IAZ064-065-067-068-078-281400-
   EAST CENTRAL IOWA

CITY           SKY/WX    TMP DP  RH WIND       PRES   REMARKS
DAVENPORT      PTCLDY    18   8  65 SE16      30.17F WCI   3
IOWA CITY      PTCLDY    15   9  76 SE12      30.13F WCI   2
MT. PLEASANT * PTCLDY    16  12  86 SE10      30.13F WCI   3
MUSCATINE *    CLEAR     18  10  73 SE13      30.16F WCI   4
QUAD CITIES    PTCLDY    18   9  68 SE10      30.19F WCI   6
$$

IAZ062-063-075>077-085>089-095>099-281400-
   SOUTHEAST IOWA

CITY           SKY/WX    TMP DP  RH WIND       PRES   REMARKS
BURLINGTON     PTCLDY    17  12  80 SE10      30.15F WCI   5
FAIRFIELD *    CLEAR     18  12  79 SE15      30.09F WCI   3
FORT MADISON * CLEAR     19  16  86 SE10G17   30.15F WCI   8
KEOKUK *       CLEAR     21  18  86 SE10      30.13F WCI  10
OSKALOOSA *      N/A     18  14  86 SE13      30.07F WCI   4
CENTERVILLE *  CLEAR     23  21  93 SE6       30.05S WCI  16
OTTUMWA        PTCLDY    20  15  81 SE14      30.05F WCI   7
WASHINGTON *   CLEAR     16  14  93 SE17      30.10F WCI   0
$$

ABBREVIATIONS USED IN REMARKS
   TC - TEMPERATURES IN CELSIUS
  WCI - WIND CHILL INDEX
   HX - HEAT INDEX
  VSB - VISIBILITY
$$




USA.gov is the U.S. government's official web portal to all federal, state and local government web resources and services.